Location: Newark
(45.6333°N, 17.8833°E)
Time: 18:40:35
(UTC+00:00)

OTV 5 (USA 277) - Visible Passes

Search period start: 17 October 2019 00:00
Search period end: 27 October 2019 00:00
Orbit: 310 x 324 km, 54.5° (Epoch: 08 October)

Date Brightness Start Highest point End Pass type
(mag) Time Alt. Az. Time Alt. Az. Time Alt. Az.
17 Oct ? 02:50:44 16° NE 02:50:44 16° NE 02:51:47 10° ENE visible
17 Oct ? 04:21:38 10° NW 04:24:23 87° SSW 04:27:06 10° SE visible
18 Oct ? 03:05:07 26° NE 03:05:07 26° NE 03:06:59 10° E visible
18 Oct ? 04:36:20 10° WNW 04:38:51 32° SW 04:41:20 10° SSE visible
19 Oct ? 03:19:36 50° ENE 03:19:36 50° ENE 03:21:54 10° ESE visible
20 Oct ? 03:34:13 44° S 03:34:13 44° S 03:36:25 10° SE visible
21 Oct ? 03:48:58 18° SSW 03:48:58 18° SSW 03:50:17 10° S visible
